TimeCDT,TemperatureF,Dew PointF,Humidity,Sea Level PressureIn,VisibilityMPH,Wind Direction,Wind SpeedMPH,Gust SpeedMPH,PrecipitationIn,Events,Conditions,WindDirDegrees,DateUTC
12:14 AM,37.4,26.6,65,30.17,10.0,West,9.2,-,N/A,,Clear,260,2012-10-07 05:14:00
12:34 AM,37.4,26.6,65,30.17,10.0,WSW,8.1,-,N/A,,Clear,250,2012-10-07 05:34:00
12:53 AM,35.6,26.6,70,30.17,10.0,SSW,6.9,-,N/A,,Clear,200,2012-10-07 05:53:00
1:13 AM,33.8,26.6,75,30.16,10.0,SSW,6.9,-,N/A,,Clear,200,2012-10-07 06:13:00
1:34 AM,33.8,26.6,75,30.16,10.0,SSW,8.1,-,N/A,,Clear,210,2012-10-07 06:34:00
1:53 AM,32.0,24.8,75,30.16,10.0,SSW,8.1,-,N/A,,Clear,210,2012-10-07 06:53:00
2:13 AM,32.0,24.8,75,30.16,10.0,SSW,9.2,-,N/A,,Clear,200,2012-10-07 07:13:00
2:34 AM,32.0,24.8,75,30.15,10.0,SSW,10.4,-,N/A,,Clear,200,2012-10-07 07:34:00
2:53 AM,32.0,24.8,75,30.14,10.0,SSW,11.5,-,N/A,,Clear,210,2012-10-07 07:53:00
3:13 AM,30.2,24.8,80,30.13,10.0,SSW,11.5,-,N/A,,Clear,210,2012-10-07 08:13:00
3:34 AM,30.2,24.8,80,30.13,10.0,SSW,10.4,-,N/A,,Clear,210,2012-10-07 08:34:00
3:53 AM,30.2,24.8,80,30.13,10.0,SW,10.4,-,N/A,,Clear,220,2012-10-07 08:53:00
4:13 AM,30.2,24.8,80,30.12,10.0,SSW,11.5,-,N/A,,Clear,210,2012-10-07 09:13:00
4:33 AM,30.2,24.8,80,30.11,10.0,SSW,11.5,-,N/A,,Clear,210,2012-10-07 09:33:00
4:53 AM,30.2,24.8,80,30.11,10.0,SSW,11.5,-,N/A,,Clear,210,2012-10-07 09:53:00
5:14 AM,30.2,24.8,80,30.11,10.0,SSW,11.5,-,N/A,,Clear,210,2012-10-07 10:14:00
5:33 AM,30.2,24.8,80,30.10,10.0,SSW,11.5,-,N/A,,Clear,210,2012-10-07 10:33:00
5:53 AM,30.2,24.8,80,30.10,10.0,SSW,11.5,-,N/A,,Clear,210,2012-10-07 10:53:00
6:14 AM,30.2,24.8,80,30.10,10.0,SSW,11.5,-,N/A,,Clear,210,2012-10-07 11:14:00
6:33 AM,30.2,26.6,86,30.09,10.0,SSW,11.5,-,N/A,,Clear,210,2012-10-07 11:33:00
6:53 AM,30.2,26.6,86,30.09,10.0,SSW,9.2,-,N/A,,Clear,210,2012-10-07 11:53:00
7:14 AM,30.2,26.6,86,30.09,10.0,SSW,9.2,-,N/A,,Clear,210,2012-10-07 12:14:00
7:33 AM,30.2,26.6,86,30.08,10.0,SW,10.4,-,N/A,,Clear,220,2012-10-07 12:33:00
7:53 AM,30.2,26.6,86,30.08,10.0,SSW,9.2,-,N/A,,Clear,210,2012-10-07 12:53:00
8:14 AM,30.2,26.6,86,30.07,10.0,SSW,9.2,-,N/A,,Clear,210,2012-10-07 13:14:00
8:53 AM,33.8,26.6,75,30.06,10.0,SSW,12.7,-,N/A,,Clear,210,2012-10-07 13:53:00
9:14 AM,35.6,26.6,70,30.06,10.0,SW,11.5,-,N/A,,Clear,220,2012-10-07 14:14:00
9:33 AM,37.4,26.6,65,30.05,10.0,SW,13.8,-,N/A,,Clear,230,2012-10-07 14:33:00
9:53 AM,39.2,26.6,61,30.05,10.0,SW,15.0,21.9,N/A,,Clear,230,2012-10-07 14:53:00
10:14 AM,39.2,26.6,61,30.04,10.0,SW,17.3,-,N/A,,Clear,230,2012-10-07 15:14:00
10:33 AM,42.8,26.6,53,30.04,10.0,SW,17.3,-,N/A,,Clear,230,2012-10-07 15:33:00
10:53 AM,44.6,26.6,49,30.03,10.0,SW,17.3,-,N/A,,Clear,230,2012-10-07 15:53:00
11:14 AM,46.4,26.6,46,30.02,10.0,SW,18.4,23.0,N/A,,Clear,220,2012-10-07 16:14:00
11:33 AM,46.4,24.8,43,30.02,10.0,SW,19.6,-,N/A,,Clear,230,2012-10-07 16:33:00
11:53 AM,48.2,24.8,40,30.01,10.0,SW,18.4,25.3,N/A,,Clear,230,2012-10-07 16:53:00
12:14 PM,48.2,21.2,34,30.01,10.0,WSW,17.3,26.5,N/A,,Clear,250,2012-10-07 17:14:00
12:33 PM,50.0,21.2,32,30.00,10.0,SW,19.6,26.5,N/A,,Clear,220,2012-10-07 17:33:00
12:53 PM,50.0,21.2,32,29.99,10.0,SW,20.7,25.3,N/A,,Clear,220,2012-10-07 17:53:00
1:14 PM,51.8,21.2,30,29.98,10.0,WSW,16.1,28.8,N/A,,Clear,240,2012-10-07 18:14:00
1:33 PM,51.8,19.4,28,29.97,10.0,WSW,18.4,26.5,N/A,,Clear,240,2012-10-07 18:33:00
1:53 PM,51.8,19.4,28,29.96,10.0,SW,24.2,28.8,N/A,,Scattered Clouds,230,2012-10-07 18:53:00
2:13 PM,51.8,21.2,30,29.95,10.0,SW,18.4,26.5,N/A,,Clear,230,2012-10-07 19:13:00
2:33 PM,51.8,19.4,28,29.95,10.0,WSW,18.4,27.6,N/A,,Scattered Clouds,240,2012-10-07 19:33:00
2:54 PM,51.8,19.4,28,29.94,10.0,SW,20.7,26.5,N/A,,Scattered Clouds,230,2012-10-07 19:54:00
3:13 PM,51.8,19.4,28,29.94,10.0,SW,19.6,31.1,N/A,,Clear,230,2012-10-07 20:13:00
3:33 PM,51.8,19.4,28,29.94,10.0,SW,18.4,-,N/A,,Clear,230,2012-10-07 20:33:00
3:53 PM,51.8,19.4,28,29.93,10.0,SSW,21.9,27.6,N/A,,Clear,210,2012-10-07 20:53:00
4:13 PM,51.8,19.4,28,29.92,10.0,SW,19.6,26.5,N/A,,Clear,220,2012-10-07 21:13:00
4:34 PM,51.8,19.4,28,29.92,10.0,SW,19.6,-,N/A,,Clear,230,2012-10-07 21:34:00
4:53 PM,51.8,19.4,28,29.92,10.0,SW,15.0,-,N/A,,Clear,220,2012-10-07 21:53:00
5:13 PM,51.8,19.4,28,29.92,10.0,SSW,18.4,23.0,N/A,,Clear,210,2012-10-07 22:13:00
5:34 PM,50.0,19.4,30,29.91,10.0,SSW,17.3,-,N/A,,Clear,210,2012-10-07 22:34:00
5:53 PM,50.0,19.4,30,29.91,10.0,SW,17.3,-,N/A,,Clear,220,2012-10-07 22:53:00
6:14 PM,50.0,19.4,30,29.91,10.0,SSW,11.5,17.3,N/A,,Clear,210,2012-10-07 23:14:00
6:34 PM,48.2,21.2,34,29.91,10.0,SSW,8.1,-,N/A,,Clear,200,2012-10-07 23:34:00
6:54 PM,48.2,21.2,34,29.91,10.0,South,6.9,-,N/A,,Clear,190,2012-10-07 23:54:00
7:13 PM,46.4,24.8,43,29.91,10.0,South,6.9,-,N/A,,Clear,180,2012-10-08 00:13:00
7:54 PM,44.6,23.0,43,29.91,10.0,South,8.1,-,N/A,,Clear,180,2012-10-08 00:54:00
8:13 PM,44.6,21.2,39,29.90,10.0,South,9.2,-,N/A,,Scattered Clouds,170,2012-10-08 01:13:00
8:34 PM,44.6,21.2,39,29.90,10.0,South,11.5,-,N/A,,Clear,180,2012-10-08 01:34:00
8:53 PM,44.6,21.2,39,29.90,10.0,South,10.4,-,N/A,,Clear,180,2012-10-08 01:53:00
9:14 PM,42.8,23.0,46,29.89,10.0,SSW,6.9,-,N/A,,Clear,210,2012-10-08 02:14:00
9:34 PM,42.8,23.0,46,29.89,10.0,SW,5.8,-,N/A,,Clear,220,2012-10-08 02:34:00
9:53 PM,41.0,23.0,49,29.89,10.0,SW,5.8,-,N/A,,Clear,230,2012-10-08 02:53:00
10:14 PM,41.0,23.0,49,29.88,10.0,SW,5.8,-,N/A,,Clear,220,2012-10-08 03:14:00
10:33 PM,41.0,23.0,49,29.88,10.0,West,3.5,-,N/A,,Clear,260,2012-10-08 03:33:00
10:54 PM,41.0,23.0,49,29.87,10.0,West,3.5,-,N/A,,Clear,260,2012-10-08 03:54:00
11:13 PM,39.2,21.2,49,29.86,10.0,WSW,5.8,-,N/A,,Clear,240,2012-10-08 04:13:00
11:34 PM,39.2,24.8,56,29.85,10.0,SW,4.6,-,N/A,,Clear,230,2012-10-08 04:34:00
11:53 PM,39.2,23.0,52,29.85,10.0,SW,3.5,-,N/A,,Clear,220,2012-10-08 04:53:00